This is the latest recevied weather packets stored in our database for station/object HK4DAP-11. If no packets are shown the sender has not sent any weather packets the latest 10 day(s).
| Time | Temp. | Humidity | Pressure | Rain* | Wind** | Luminosity | Snow |
|---|---|---|---|---|---|---|---|
| 1787796649 | 27.22° C | 74% | 850 hPa | - | - | - | - |
| 1787796348 | 26.67° C | 77% | 850 hPa | - | - | - | - |
| 1787796048 | 27.22° C | 79% | 849.9 hPa | - | - | - | - |
| 1787795748 | 26.67° C | 73% | 849.8 hPa | - | - | - | - |
| 1787795447 | 26.11° C | 72% | 849.7 hPa | - | - | - | - |
| 1787795147 | 25.56° C | 73% | 849.8 hPa | - | - | - | - |
| 1787794848 | 25.56° C | 73% | 849.8 hPa | - | - | - | - |
| 1787794547 | 25.56° C | 73% | 849.8 hPa | - | - | - | - |
| 1787794247 | 25.56° C | 73% | 849.6 hPa | - | - | - | - |
| 1787793947 | 25.56° C | 73% | 849.5 hPa | - | - | - | - |
| 1787793647 | 25.56° C | 73% | 849.5 hPa | - | - | - | - |
| 1787793352 | 25.56° C | 73% | 849.3 hPa | - | - | - | - |
| 1787793046 | 25.56° C | 72% | 849.2 hPa | - | - | - | - |
| 1787792746 | 25.56° C | 72% | 849.2 hPa | - | - | - | - |
| 1787792446 | 25.56° C | 72% | 849.1 hPa | - | - | - | - |
| 1787792146 | 25.56° C | 71% | 849 hPa | - | - | - | - |
| 1787791846 | 26.11° C | 71% | 849 hPa | - | - | - | - |
| 1787791726 | 26.11° C | 71% | 849 hPa | - | - | - | - |
| 1787791339 | 26.11° C | 70% | 848.9 hPa | - | - | - | - |
| 1787791031 | 26.11° C | 70% | 848.8 hPa | - | - | - | - |
| 1787790645 | 26.11° C | 70% | 848.7 hPa | - | - | - | - |
| 1787790348 | 26.11° C | 69% | 848.6 hPa | - | - | - | - |
| 1787790045 | 26.11° C | 69% | 848.5 hPa | - | - | - | - |
| 1787789745 | 26.11° C | 68% | 848.3 hPa | - | - | - | - |
| 1787789445 | 26.11° C | 67% | 848.2 hPa | - | - | - | - |
* Rain since midnight (hover to see other rain measurements)
** Current wind speed in m/s (hover to see current wind gust speed)